Cahokia, IL

9:33 PM CST on February 05, 2016 (GMT -0600)
Saint Louis Downtown

Weather History for KCPS - December, 2012

Change the Weather History Date:

Monday, December 24, 2012

  Actual Average Record
Temperature  
Mean Temperature 30 °F -  
Max Temperature 35 °F 39 °F 69 °F (1955)
Min Temperature 24 °F 26 °F 1 °F (2000)
Degree Days  
Heating Degree Days 36    
Moisture  
Dew Point 25 °F    
Average Humidity 81    
Maximum Humidity 93    
Minimum Humidity 69    
Precipitation  
Precipitation 0.00 in - - ()
Sea Level Pressure  
Sea Level Pressure 29.98 in    
Wind  
Wind Speed 9 mph (NW)    
Max Wind Speed 16 mph    
Max Gust Speed -    
Visibility 7 miles    
Events      
Averages and records for this station are not official NWS values.
T = Trace of Precipitation, MM = Missing Value Source: NWS Daily Summary

Daily Weather History Graph

Daily Weather History Graph

Search for Another Location

Airport or City:

Trip Planner

Search our weather history database for the weather conditions in past years. The results will help you decide how hot, cold, wet, or windy it might be!

Date:

Astronomy

Dec. 24, 2012 Rise Set
Actual Time 7:16 AM CST 4:44 PM CST
Civil Twilight 6:46 AM CST 5:14 PM CST
Nautical Twilight 6:13 AM CST 5:48 PM CST
Astronomical Twilight 5:40 AM CST 6:20 PM CST
Moon 2:11 PM CST (12/24) 3:55 AM CST (12/24)
Length of Visible Light 10h 28m
Length of Day
9h 28m
Waxing Gibbous, 88% of the Moon is Illuminated
Dec 24
Waxing Gibbous
Dec 28
Full
Jan 4
Last Quarter
Jan 11
New
Jan 18
First Quarter

Hourly Weather History & Observations

Time (CST) Temp. Windchill Dew Point Humidity Pressure Visibility Wind Dir Wind Speed Gust Speed Precip Events Conditions
12:53 AM 35.1 °F 30.1 °F 30.9 °F 85% 29.84 in 10.0 mi North 5.8 mph - N/A   Mostly Cloudy
1:53 AM 35.1 °F 30.1 °F 30.9 °F 85% 29.85 in 9.0 mi NNW 5.8 mph - N/A   Overcast
2:10 AM 35.6 °F 31.7 °F 30.2 °F 81% 29.83 in 9.0 mi North 4.6 mph - N/A   Overcast
2:31 AM 35.6 °F 32.8 °F 30.2 °F 81% 29.83 in 9.0 mi North 3.5 mph - N/A   Scattered Clouds
2:53 AM 34.0 °F 28.8 °F 30.0 °F 85% 29.83 in 9.0 mi NNW 5.8 mph - N/A   Mostly Cloudy
3:53 AM 33.1 °F 28.7 °F 30.0 °F 89% 29.83 in 9.0 mi NW 4.6 mph - N/A   Clear
4:53 AM 35.1 °F 27.9 °F 30.0 °F 82% 29.85 in 9.0 mi WNW 9.2 mph - N/A   Overcast
5:53 AM 33.1 °F 24.4 °F 28.9 °F 85% 29.88 in 7.0 mi NW 11.5 mph - N/A   Scattered Clouds
6:48 AM 30.2 °F 22.6 °F 28.4 °F 93% 29.89 in 5.0 mi WNW 8.1 mph - N/A   Scattered Clouds
6:53 AM 30.9 °F 24.3 °F 28.0 °F 89% 29.90 in 5.0 mi WNW 6.9 mph - N/A   Mostly Cloudy
7:53 AM 32.0 °F 21.2 °F 28.0 °F 85% 29.93 in 4.0 mi WNW 16.1 mph - N/A   Overcast
8:53 AM 30.9 °F 19.8 °F 27.0 °F 85% 29.98 in 3.0 mi WNW 16.1 mph - N/A   Overcast
10:53 AM 30.9 °F 22.2 °F 26.1 °F 82% 29.99 in 6.0 mi WNW 10.4 mph - N/A   Haze
1:53 PM 30.0 °F 18.7 °F 24.1 °F 79% 29.99 in 6.0 mi NNW 16.1 mph - N/A   Haze
3:53 PM 28.9 °F 19.2 °F 23.0 °F 78% 30.04 in 5.0 mi NW 11.5 mph - N/A   Haze
4:53 PM 28.0 °F 17.5 °F 21.9 °F 78% 30.05 in 6.0 mi NW 12.7 mph - N/A   Haze
5:53 PM 27.0 °F 14.7 °F 21.0 °F 78% 30.09 in 6.0 mi NW 16.1 mph - N/A   Haze
6:53 PM 26.1 °F 14.5 °F 19.9 °F 78% 30.12 in 6.0 mi NW 13.8 mph - N/A   Haze
7:53 PM 25.0 °F 13.6 °F 19.9 °F 81% 30.14 in 7.0 mi NNW 12.7 mph - N/A   Overcast
8:53 PM 25.0 °F 13.1 °F 19.0 °F 78% 30.14 in 8.0 mi NNW 13.8 mph - N/A   Overcast
9:53 PM 25.0 °F 14.8 °F 16.0 °F 69% 30.15 in 10.0 mi NNW 10.4 mph - N/A   Overcast
10:53 PM 24.1 °F 13.7 °F 15.1 °F 69% 30.16 in 10.0 mi North 10.4 mph - N/A   Overcast
11:53 PM 24.1 °F 13.7 °F 16.0 °F 71% 30.17 in 10.0 mi North 10.4 mph - N/A   Overcast